Flag for Greece Weather past 2 weeks in Athens, Greece

Now
68 °F

Passing clouds.


Feels Like: 68 °F
Forecast: 51 / 69 °F
Wind: 10 mph from South

Location: Elefsis Airport


UV Index: 5 (Moderate)

Visibility: N/A


Pressure: 29.95 "Hg

Humidity: 46%

Dew point: 46 °F

Location of AthensLocation

Historic Weather in Athens

°F

Athens temperature yesterday

Maximum temperature yesterday: 68 °F (at 3:20 PM)
Minimum temperature yesterday: 43 °F (at 4:50 AM)
Average temperature yesterday: 55 °F

Past Weeks' High & Low Weather Summary

 TemperatureHumidityPressure
High75 °F (Apr 9, 2:20 PM)100% (Apr 17, 11:50 PM)30.09 "Hg (Apr 17, 11:50 PM)
Low43 °F (Apr 19, 4:50 AM)21% (Apr 11, 12:50 PM)29.65 "Hg (Apr 18, 3:20 AM)
Average59 °F66%29.89 "Hg
* Reported Apr 5 1:20 PM — Apr 20 1:20 PM, Athens, Weather by CustomWeather, © 2014

Note: Actual official high and low records may vary slightly from our data, if they occured in-between our weather recording intervals... More about our weather records

Advertising

Historic Weather Conditions — Data for Previous 24 hours

 ConditionsComfort  
Time TempWeatherWind HumidityBarometerVisibility
1:20 PM
Apr 20
68 °FPassing clouds.9 mph46%29.95 "HgN/A
12:50 PM68 °FPassing clouds.8 mph46%29.95 "HgN/A
12:20 PM68 °FPassing clouds.7 mph46%29.95 "HgN/A
11:50 AM68 °FPassing clouds.7 mph46%29.95 "HgN/A
11:20 AM66 °FPassing clouds.7 mph49%29.95 "HgN/A
10:50 AM66 °FSunny.5 mph49%29.95 "Hg10 mi
10:20 AM63 °FSunny.No wind59%29.95 "Hg10 mi
9:50 AM63 °FSunny.3 mph56%29.95 "Hg10 mi
9:20 AM59 °FSunny.No wind68%29.95 "Hg10 mi
8:50 AM59 °FSunny.No wind68%29.95 "Hg10 mi
8:20 AM54 °FScattered clouds.No wind82%29.95 "HgN/A
7:50 AM52 °FScattered clouds.No wind88%29.95 "HgN/A
7:20 AM50 °FPassing clouds.No wind88%29.95 "HgN/A
6:50 AM46 °FClear.No wind93%29.95 "Hg10 mi
6:20 AM46 °FClear.No wind93%29.95 "Hg10 mi
5:50 AM46 °FClear.No wind87%29.95 "Hg10 mi
5:20 AM46 °FClear.No wind87%29.92 "Hg10 mi
4:50 AM46 °FClear.No wind93%29.95 "Hg10 mi
4:20 AM48 °FClear.No wind87%29.95 "Hg10 mi
3:50 AM48 °FClear.No wind87%29.95 "Hg10 mi
3:20 AM48 °FClear.No wind87%29.95 "Hg10 mi
2:50 AM48 °FClear.No wind87%29.95 "Hg10 mi
2:20 AM48 °FClear.No wind87%29.95 "Hg10 mi
1:50 AM50 °FClear.No wind82%29.95 "Hg10 mi
1:20 AM50 °FPassing clouds.No wind82%29.95 "HgN/A
12:50 AM50 °FPassing clouds.No wind82%29.95 "HgN/A
12:20 AM52 °FPassing clouds.No wind77%29.95 "HgN/A
11:50 PM
Apr 19
52 °FPassing clouds.No wind77%29.95 "HgN/A
11:20 PM52 °FPassing clouds.No wind82%29.95 "HgN/A
10:50 PM54 °FPassing clouds.5 mph77%29.95 "HgN/A
10:20 PM54 °FPassing clouds.No wind77%29.92 "HgN/A
9:50 PM55 °FPassing clouds.No wind72%29.92 "HgN/A
9:20 PM57 °FPassing clouds.No wind67%29.92 "HgN/A
8:50 PM57 °FPassing clouds.No wind67%29.92 "HgN/A
8:20 PM59 °FPassing clouds.No wind59%29.92 "HgN/A
7:50 PM61 °FScattered clouds.No wind55%29.89 "HgN/A
7:20 PM63 °FPassing clouds.5 mph52%29.89 "HgN/A
6:50 PM64 °FPassing clouds.7 mph49%29.89 "HgN/A
6:20 PM68 °FPassing clouds.9 mph43%29.86 "HgN/A
5:50 PM68 °FPassing clouds.8 mph43%29.86 "HgN/A
5:20 PM68 °FScattered clouds.9 mph46%29.86 "HgN/A
4:50 PM68 °FScattered clouds.9 mph43%29.86 "HgN/A
4:20 PM66 °FPassing clouds.9 mph46%29.86 "HgN/A
3:50 PM68 °FPassing clouds.9 mph43%29.86 "HgN/A
3:20 PM68 °FScattered clouds.12 mph40%29.86 "HgN/A
2:50 PM66 °FScattered clouds.9 mph43%29.86 "HgN/A
Weather by CustomWeather, © 2014

See weather overview